FW2321 Weather Reports


Display with metric or nautical units.
time (UTC)temp
F
wind
direction
speed
MPH
gust
MPH
rain 1hr
in
rain 24hr
in
rain mn
in
humidity
%
barometer
mb
20260906115538 62 0 0.0 0.0 0.00 0.00 0.00 100 1018.9
20260906115041 62 0 0.0 0.0 0.00 0.00 0.00 100 1018.8
20260906114612 62 0 0.0 0.0 0.00 0.00 0.00 100 1018.8
20260906114035 63 0 0.0 0.0 0.00 0.00 0.00 100 1018.6
20260906113538 63 0 0.0 0.0 0.00 0.00 0.00 100 1018.5
20260906113053 63 0 0.0 0.0 0.00 0.00 0.00 100 1018.5
20260906112537 63 0 0.0 0.0 0.00 0.00 0.00 100 1018.6
20260906112037 63 0 0.0 0.0 0.00 0.00 0.00 100 1018.5
20260906111617 63 0 0.0 0.0 0.00 0.00 0.00 100 1018.5
20260906111035 63 0 0.0 0.0 0.00 0.00 0.00 100 1018.4
20260906110535 63 0 0.0 0.0 0.00 0.00 0.00 100 1018.5
20260906110053 63 0 0.0 0.0 0.00 0.00 0.00 100 1018.4
20260906105537 63 0 0.0 0.0 0.00 0.00 0.00 100 1018.2
20260906105041 63 0 0.0 0.0 0.00 0.00 0.00 100 1018.3
20260906104550 63 0 0.0 0.0 0.00 0.00 0.00 100 1018.3
20260906104037 63 0 0.0 0.0 0.00 0.00 0.00 100 1018.3
20260906103534 63 0 0.0 0.0 0.00 0.00 0.00 100 1018.1
20260906103057 63 0 0.0 0.0 0.00 0.00 0.00 100 1018.3
20260906102538 63 0 0.0 0.0 0.00 0.00 0.00 100 1018.2
20260906102035 63 0 0.0 0.0 0.00 0.00 0.00 100 1018.2
20260906101554 63 0 0.0 3.0 0.00 0.00 0.00 100 1018.3
20260906101037 64 0 0.0 3.0 0.00 0.00 0.00 100 1018.3
20260906100538 64 0 1.0 3.0 0.00 0.00 0.00 100 1018.2
20260906100059 64 0 0.0 2.0 0.00 0.00 0.00 100 1018.1
20260906095537 64 0 0.0 2.0 0.00 0.00 0.00 100 1018.2
20260906095036 64 0 0.0 0.0 0.00 0.00 0.00 100 1018.2
20260906094552 64 0 0.0 0.0 0.00 0.00 0.00 100 1018.2
20260906094035 64 0 0.0 4.0 0.00 0.00 0.00 100 1018.1
20260906093535 64 0 1.0 4.0 0.00 0.00 0.00 100 1018.0
20260906093057 64 59 0.0 4.0 0.00 0.00 0.00 100 1017.8
20260906092535 64 0 0.0 0.0 0.00 0.00 0.00 100 1017.8
20260906092035 64 0 0.0 0.0 0.00 0.00 0.00 100 1017.7
20260906091554 64 0 0.0 0.0 0.00 0.00 0.00 100 1017.8
20260906091038 64 0 0.0 0.0 0.00 0.00 0.00 100 1017.9
20260906090536 63 0 0.0 2.0 0.00 0.00 0.00 100 1017.9
20260906090056 63 0 0.0 2.0 0.00 0.00 0.00 100 1017.9
20260906085539 63 0 0.0 2.0 0.00 0.00 0.00 100 1017.9
20260906085035 63 0 0.0 2.0 0.00 0.00 0.00 100 1017.8
20260906084555 62 0 0.0 2.0 0.00 0.00 0.00 100 1018.0
20260906084036 62 0 0.0 0.0 0.00 0.00 0.00 100 1017.9
20260906083535 62 0 0.0 0.0 0.00 0.00 0.00 100 1017.9
20260906083056 62 0 0.0 0.0 0.00 0.00 0.00 100 1017.8
20260906082537 62 0 0.0 0.0 0.00 0.00 0.00 100 1017.7
20260906082035 62 0 0.0 0.0 0.00 0.00 0.00 100 1017.7
20260906081558 62 0 0.0 0.0 0.00 0.00 0.00 100 1017.6
20260906081037 62 0 0.0 0.0 0.00 0.00 0.00 100 1017.9
20260906080537 62 0 0.0 0.0 0.00 0.00 0.00 100 1017.8
20260906080133 62 0 0.0 0.0 0.00 0.00 0.00 100 1017.8
20260906075536 62 0 0.0 0.0 0.00 0.00 0.00 100 1017.9
20260906075038 62 0 0.0 0.0 0.00 0.00 0.00 100 1017.8
20260906074552 62 0 0.0 0.0 0.00 0.00 0.00 100 1017.9
20260906074035 62 0 0.0 0.0 0.00 0.00 0.00 100 1017.9
20260906073539 62 0 0.0 0.0 0.00 0.00 0.00 100 1017.9
20260906073057 62 0 0.0 0.0 0.00 0.00 0.00 100 1017.9
20260906072535 62 0 0.0 0.0 0.00 0.00 0.00 100 1017.8
20260906072035 62 0 0.0 0.0 0.00 0.00 0.00 99 1017.7
20260906071557 62 0 0.0 0.0 0.00 0.00 0.00 99 1017.8
20260906071035 62 0 0.0 0.0 0.00 0.00 0.00 99 1017.7
20260906070537 62 0 0.0 0.0 0.00 0.00 0.00 99 1017.8
20260906065536 62 0 0.0 0.0 0.00 0.00 0.00 99 1017.9
20260906065038 62 0 0.0 0.0 0.00 0.00 0.00 99 1017.9
20260906064553 62 0 0.0 0.0 0.00 0.00 0.00 99 1018.0
20260906064037 62 0 0.0 0.0 0.00 0.00 0.00 99 1018.1
20260906063541 62 0 0.0 0.0 0.00 0.00 0.00 99 1017.9
20260906063055 62 0 0.0 0.0 0.00 0.00 0.00 99 1017.9
20260906062539 62 0 0.0 0.0 0.00 0.00 0.00 99 1018.0
20260906062037 62 0 0.0 0.0 0.00 0.00 0.00 98 1018.1
20260906061554 62 0 0.0 0.0 0.00 0.00 0.00 98 1017.9
20260906061037 62 0 0.0 0.0 0.00 0.00 0.00 98 1017.9
20260906060538 62 0 0.0 0.0 0.00 0.00 0.00 98 1017.9
20260906060100 62 0 0.0 0.0 0.00 0.00 0.00 98 1017.9
20260906055535 62 0 0.0 0.0 0.00 0.00 0.00 98 1017.9
20260906055035 63 0 0.0 0.0 0.00 0.00 0.00 98 1017.9
20260906054616 63 0 0.0 0.0 0.00 0.00 0.00 98 1017.9
20260906054037 63 0 0.0 2.0 0.00 0.00 0.00 98 1017.8
20260906053538 63 0 0.0 2.0 0.00 0.00 0.00 98 1017.9
20260906053051 63 0 0.0 2.0 0.00 0.00 0.00 98 1017.9
20260906052537 63 0 0.0 0.0 0.00 0.00 0.00 97 1017.9
20260906052034 63 0 0.0 1.0 0.00 0.00 0.00 98 1017.8
20260906051556 63 0 0.0 1.0 0.00 0.00 0.00 98 1017.8
20260906051034 63 0 0.0 1.0 0.00 0.00 0.00 98 1017.8
20260906050536 63 0 0.0 1.0 0.00 0.00 0.00 97 1017.7
20260906050104 63 0 0.0 0.0 0.00 0.00 0.00 97 1017.7
20260906045533 63 0 0.0 3.0 0.00 0.00 0.00 97 1017.7
20260906045035 63 0 0.0 3.0 0.00 0.00 0.00 97 1017.8
20260906044552 64 0 0.0 2.0 0.00 0.00 0.00 97 1017.7
20260906044036 64 0 0.0 0.0 0.00 0.00 0.00 97 1017.6
20260906043535 64 0 0.0 0.0 0.00 0.00 0.00 96 1017.5
20260906043100 64 0 0.0 0.0 0.00 0.00 0.00 96 1017.5
20260906042536 64 0 0.0 0.0 0.00 0.00 0.00 96 1017.6
20260906042037 64 0 0.0 0.0 0.00 0.00 0.00 95 1017.3
20260906041553 64 0 0.0 0.0 0.00 0.00 0.00 95 1017.2
20260906041038 64 0 0.0 0.0 0.00 0.00 0.00 95 1017.3
20260906040537 65 0 0.0 0.0 0.00 0.00 0.00 95 1017.1
20260906040119 65 0 0.0 0.0 0.00 0.00 0.00 95 1017.1
20260906035537 65 0 0.0 0.0 0.00 0.00 0.00 95 1017.1
20260906035037 65 0 0.0 3.0 0.00 0.00 0.00 95 1017.2
20260906034600 65 0 0.0 3.0 0.00 0.00 0.00 95 1017.4
20260906034038 66 0 0.0 5.0 0.00 0.00 0.00 95 1017.3
20260906033537 66 0 0.0 5.0 0.00 0.00 0.00 96 1017.1
20260906033117 66 0 1.0 4.0 0.00 0.00 0.00 96 1017.1
20260906032539 66 0 0.0 3.0 0.00 0.00 0.00 96 1017.2
20260906032035 66 0 1.0 3.0 0.00 0.00 0.00 97 1017.0
20260906031611 66 0 0.0 5.0 0.00 0.00 0.00 97 1017.0
20260906031042 66 48 0.0 6.0 0.00 0.00 0.00 97 1016.9
20260906030538 67 49 1.0 6.0 0.00 0.00 0.00 97 1016.9
20260906030054 67 47 3.0 6.0 0.00 0.00 0.00 97 1016.8
20260906025537 67 51 2.0 7.0 0.00 0.00 0.00 97 1016.9
20260906025038 67 57 2.0 7.0 0.00 0.00 0.00 98 1016.7
20260906024607 67 0 2.0 6.0 0.00 0.00 0.00 98 1016.8
20260906024042 67 71 3.0 7.0 0.00 0.00 0.00 98 1016.9
20260906023538 67 58 2.0 7.0 0.00 0.00 0.00 98 1016.8
20260906023104 67 29 2.0 6.0 0.00 0.00 0.00 98 1016.7
20260906022533 67 44 1.0 6.0 0.00 0.00 0.00 98 1016.6
20260906022037 67 57 1.0 4.0 0.00 0.00 0.00 97 1016.6
20260906021612 67 59 1.0 4.0 0.00 0.00 0.00 97 1016.6
20260906021037 67 59 1.0 4.0 0.00 0.00 0.00 97 1016.7
20260906020537 67 69 0.0 3.0 0.00 0.00 0.00 97 1016.6
20260906015537 68 0 0.0 4.0 0.00 0.00 0.00 97 1016.5
20260906015037 68 84 1.0 4.0 0.00 0.00 0.00 97 1016.6
20260906014556 68 104 1.0 3.0 0.00 0.00 0.00 97 1016.6
20260906014036 68 0 0.0 3.0 0.00 0.00 0.00 96 1016.6
20260906013539 68 57 0.0 3.0 0.00 0.00 0.00 96 1016.7
20260906013059 68 0 0.0 3.0 0.00 0.00 0.00 96 1016.8
20260906012537 68 0 0.0 3.0 0.00 0.00 0.00 96 1016.8
20260906012033 68 54 0.0 3.0 0.00 0.00 0.00 96 1016.7
20260906011553 68 51 0.0 3.0 0.00 0.00 0.00 96 1016.8
20260906011043 69 0 0.0 6.0 0.00 0.00 0.00 96 1016.8
20260906010536 69 0 1.0 6.0 0.00 0.00 0.00 96 1016.7
20260906010053 69 49 2.0 4.0 0.00 0.00 0.00 95 1016.8
20260906005535 69 0 0.0 4.0 0.00 0.00 0.00 95 1016.7
20260906005037 69 34 2.0 7.0 0.00 0.00 0.00 95 1016.8
20260906004600 69 20 1.0 7.0 0.00 0.00 0.00 95 1016.8
20260906004035 69 39 1.0 5.0 0.00 0.00 0.00 94 1016.7
20260906003535 70 49 1.0 6.0 0.00 0.00 0.00 94 1016.6
20260906003057 70 52 2.0 6.0 0.00 0.00 0.00 94 1016.7
20260906002537 70 0 1.0 5.0 0.00 0.00 0.00 93 1016.8
20260906002034 70 84 0.0 6.0 0.00 0.00 0.00 93 1016.8
20260906001554 71 0 1.0 9.0 0.00 0.00 0.00 93 1016.7
20260906001033 71 65 2.0 9.0 0.00 0.00 0.00 92 1016.6
20260906000536 71 98 2.0 9.0 0.00 0.00 0.00 92 1016.5
20260906000108 72 90 1.0 6.0 0.00 0.00 0.00 91 1016.5
20260905235536 72 0 2.0 5.0 0.00 0.00 0.00 91 1016.4
20260905235037 72 0 1.0 6.0 0.00 0.00 0.00 90 1016.4
20260905234602 73 68 1.0 6.0 0.00 0.00 0.00 90 1016.5
20260905234035 73 0 1.0 6.0 0.00 0.00 0.00 90 1016.4
20260905233542 73 81 1.0 4.0 0.00 0.00 0.00 91 1016.4
20260905233056 73 78 0.0 8.0 0.00 0.00 0.00 91 1016.5
20260905232536 73 53 1.0 8.0 0.00 0.00 0.00 91 1016.5
20260905232036 73 78 2.0 8.0 0.00 0.00 0.00 91 1016.6
20260905231554 73 50 2.0 11.0 0.00 0.00 0.00 91 1016.5
20260905231038 73 59 0.0 11.0 0.00 0.00 0.00 91 1016.5
20260905230540 74 0 4.0 11.0 0.00 0.00 0.00 90 1016.5
20260905230051 74 0 3.0 10.0 0.00 0.00 0.00 90 1016.5
20260905225538 74 46 1.0 10.0 0.00 0.00 0.00 89 1016.5
20260905225043 74 42 3.0 10.0 0.00 0.00 0.00 89 1016.3
20260905224755 75 111 2.0 9.0 0.00 0.00 0.00 89 1016.3
20260905224037 75 38 2.0 9.0 0.00 0.00 0.00 88 1016.2
20260905223533 75 92 1.0 9.0 0.00 0.00 0.00 88 1016.3
20260905223054 75 35 2.0 11.0 0.00 0.00 0.00 87 1016.3
20260905222537 75 65 4.0 14.0 0.00 0.00 0.00 86 1016.1
20260905222037 75 53 3.0 14.0 0.00 0.00 0.00 85 1016.1
20260905221554 76 52 3.0 14.0 0.00 0.00 0.00 85 1016.1
20260905221034 76 50 5.0 14.0 0.00 0.00 0.00 84 1016.1
20260905220534 76 83 1.0 10.0 0.00 0.00 0.00 86 1016.2
20260905220059 77 82 5.0 12.0 0.00 0.00 0.00 84 1016.0
20260905215538 78 32 4.0 12.0 0.00 0.00 0.00 83 1015.8
20260905215033 78 0 3.0 9.0 0.00 0.00 0.00 85 1015.8
20260905214556 78 42 3.0 9.0 0.00 0.00 0.00 85 1015.8
20260905214037 78 34 3.0 12.0 0.00 0.00 0.00 85 1015.7
20260905213533 77 51 5.0 12.0 0.00 0.00 0.00 86 1015.6
20260905213110 77 39 5.0 13.0 0.00 0.00 0.00 85 1015.7
20260905212537 77 48 7.0 14.0 0.00 0.00 0.00 84 1015.5
20260905212034 78 41 7.0 14.0 0.00 0.00 0.00 83 1015.4
20260905211607 79 38 3.0 13.0 0.00 0.00 0.00 85 1015.4
20260905211038 78 40 4.0 13.0 0.00 0.00 0.00 84 1015.4
20260905210534 78 53 7.0 13.0 0.00 0.00 0.00 84 1015.3
20260905205534 78 46 5.0 13.0 0.00 0.00 0.00 84 1015.3
20260905205035 79 0 6.0 13.0 0.00 0.00 0.00 85 1015.2
20260905204551 79 57 7.0 13.0 0.00 0.00 0.00 86 1015.4
20260905204036 79 26 7.0 13.0 0.00 0.00 0.00 87 1015.3
20260905203537 79 26 7.0 13.0 0.00 0.00 0.00 86 1015.4
20260905203104 79 9 7.0 17.0 0.00 0.00 0.00 87 1015.4
20260905202536 79 28 9.0 17.0 0.00 0.00 0.00 85 1015.4
20260905202038 79 15 5.0 12.0 0.00 0.00 0.00 87 1015.5
20260905201602 79 42 5.0 15.0 0.00 0.00 0.00 84 1015.5
20260905201038 80 42 8.0 15.0 0.00 0.00 0.00 83 1015.5
20260905200535 81 12 4.0 12.0 0.00 0.00 0.00 82 1015.3
20260905200112 81 9 4.0 10.0 0.00 0.00 0.00 81 1015.6
20260905195538 81 348 3.0 10.0 0.00 0.00 0.00 83 1015.4
20260905195034 81 16 5.0 10.0 0.00 0.00 0.00 81 1015.6
20260905194600 81 23 5.0 10.0 0.00 0.00 0.00 82 1015.5
20260905194034 81 55 5.0 10.0 0.00 0.00 0.00 82 1015.4
20260905193534 81 59 5.0 11.0 0.00 0.00 0.00 82 1015.5
20260905193059 81 38 6.0 11.0 0.00 0.00 0.00 82 1015.5
20260905192536 81 49 4.0 9.0 0.00 0.00 0.00 83 1015.7
20260905192034 81 25 5.0 9.0 0.00 0.00 0.00 82 1015.6
20260905191553 80 5 3.0 13.0 0.00 0.00 0.00 81 1015.6
20260905191033 80 22 5.0 13.0 0.00 0.00 0.00 82 1015.6
20260905190533 80 30 5.0 13.0 0.00 0.00 0.00 82 1015.7
20260905190051 80 25 4.0 11.0 0.00 0.00 0.00 84 1015.6
20260905185534 80 40 5.0 13.0 0.00 0.00 0.00 82 1015.9
20260905185035 80 28 7.0 13.0 0.00 0.00 0.00 81 1015.8
20260905184606 80 28 4.0 10.0 0.00 0.00 0.00 83 1015.6
20260905184039 80 57 4.0 10.0 0.00 0.00 0.00 83 1015.6
20260905183535 80 55 4.0 9.0 0.00 0.00 0.00 83 1015.7
20260905183057 80 47 4.0 9.0 0.00 0.00 0.00 86 1015.8
20260905182533 79 333 3.0 8.0 0.00 0.00 0.00 86 1015.8
20260905182034 79 21 2.0 11.0 0.00 0.00 0.00 88 1015.9
20260905181558 78 28 4.0 11.0 0.00 0.00 0.00 87 1015.8
20260905181033 78 26 6.0 11.0 0.00 0.00 0.00 86 1015.8
20260905180534 78 38 1.0 9.0 0.00 0.00 0.00 88 1015.9
20260905180100 78 355 3.0 9.0 0.00 0.00 0.00 88 1015.9
20260905175536 78 50 1.0 5.0 0.00 0.00 0.00 89 1016.0
20260905175038 77 24 2.0 5.0 0.00 0.00 0.00 89 1015.9
20260905174557 77 34 1.0 3.0 0.00 0.00 0.00 90 1015.9
20260905174035 76 34 2.0 5.0 0.00 0.00 0.00 91 1015.9
20260905173539 76 37 3.0 5.0 0.00 0.00 0.00 91 1016.0
20260905173103 76 37 2.0 6.0 0.00 0.00 0.00 92 1016.1
20260905172534 76 33 2.0 6.0 0.00 0.00 0.00 92 1016.1
20260905172036 76 20 3.0 6.0 0.00 0.00 0.00 91 1016.0
20260905171601 76 40 2.0 5.0 0.00 0.00 0.00 91 1016.2
20260905171034 76 22 1.0 4.0 0.00 0.00 0.00 91 1016.0
20260905170534 76 25 2.0 4.0 0.00 0.00 0.00 92 1016.1
20260905170112 75 26 1.0 5.0 0.00 0.00 0.00 91 1016.1
20260905165535 75 29 1.0 5.0 0.00 0.00 0.00 92 1016.1
20260905165038 75 360 2.0 4.0 0.00 0.00 0.00 93 1016.2
20260905164555 75 0 2.0 4.0 0.00 0.00 0.00 92 1016.1
20260905164035 75 32 2.0 5.0 0.00 0.00 0.00 93 1016.3
20260905163535 75 45 3.0 6.0 0.00 0.00 0.00 93 1016.3
20260905163053 75 28 3.0 6.0 0.00 0.00 0.00 92 1016.2
20260905162535 75 49 1.0 5.0 0.00 0.00 0.00 93 1016.1
20260905162034 75 22 2.0 5.0 0.00 0.00 0.00 92 1016.1
20260905161551 75 21 2.0 5.0 0.00 0.00 0.00 93 1016.1
20260905161035 75 10 2.0 7.0 0.00 0.00 0.00 93 1016.1
20260905160535 75 22 2.0 7.0 0.00 0.00 0.00 93 1016.1
20260905160059 75 25 2.0 8.0 0.00 0.00 0.00 94 1016.2
20260905155535 74 26 4.0 8.0 0.00 0.19 0.00 94 1016.1
20260905155033 74 35 2.0 8.0 0.00 0.19 0.00 95 1016.1
20260905154559 74 36 3.0 8.0 0.00 0.19 0.00 95 1016.0
20260905154039 74 19 4.0 8.0 0.00 0.19 0.00 95 1016.0
20260905153536 73 21 3.0 8.0 0.00 0.19 0.00 97 1016.0
20260905153051 73 44 3.0 8.0 0.00 0.19 0.00 98 1016.0
20260905152535 72 24 4.0 10.0 0.00 0.19 0.00 96 1016.0
20260905152033 72 44 3.0 10.0 0.00 0.19 0.00 97 1016.0
20260905151612 73 31 4.0 8.0 0.00 0.19 0.00 97 1016.0
20260905151035 73 49 3.0 7.0 0.00 0.19 0.00 97 1016.1
20260905150535 73 45 0.0 9.0 0.00 0.19 0.00 97 1015.8
20260905150058 72 56 4.0 9.0 0.00 0.19 0.00 97 1015.6
20260905145535 72 41 4.0 9.0 0.00 0.19 0.00 97 1015.6
20260905145034 73 57 0.0 9.0 0.00 0.19 0.00 98 1015.6
20260905144558 72 43 2.0 6.0 0.00 0.19 0.00 98 1015.6
20260905144037 72 69 2.0 8.0 0.00 0.19 0.00 98 1015.5
20260905143537 72 52 3.0 8.0 0.00 0.19 0.00 98 1015.4
20260905143053 72 28 1.0 9.0 0.00 0.19 0.00 99 1015.4
20260905142533 72 44 3.0 9.0 0.00 0.19 0.00 99 1015.3
20260905142033 72 63 4.0 9.0 0.00 0.19 0.00 99 1015.3
20260905141550 72 26 2.0 7.0 0.00 0.19 0.00 99 1015.3
20260905141033 72 49 2.0 7.0 0.00 0.19 0.00 100 1015.2
20260905140537 72 46 2.0 7.0 0.00 0.19 0.00 100 1015.2
20260905140057 72 71 1.0 9.0 0.00 0.19 0.00 100 1015.2
20260905135536 71 39 1.0 9.0 0.00 0.19 0.00 100 1015.1
20260905135034 71 33 4.0 9.0 0.00 0.19 0.00 100 1015.1
20260905134559 71 57 4.0 9.0 0.00 0.19 0.00 100 1015.1
20260905134034 71 53 3.0 9.0 0.00 0.19 0.00 100 1015.2
20260905133535 71 45 3.0 9.0 0.00 0.19 0.00 100 1015.3
20260905133056 71 47 2.0 8.0 0.00 0.19 0.00 100 1015.2
20260905132533 71 43 2.0 9.0 0.00 0.19 0.00 100 1015.1
20260905132038 71 50 3.0 9.0 0.00 0.19 0.00 100 1015.1
20260905131932 70 41 3.0 6.0 0.00 0.19 0.00 100 1015.2
20260905131035 70 64 3.0 6.0 0.00 0.19 0.00 100 1015.4
20260905130535 70 36 2.0 5.0 0.00 0.19 0.00 100 1015.6
20260905130056 70 48 2.0 5.0 0.00 0.19 0.00 100 1015.6
20260905125534 70 40 2.0 6.0 0.00 0.19 0.00 100 1015.4
20260905125034 70 29 2.0 6.0 0.00 0.19 0.00 100 1015.3
20260905124553 70 24 2.0 7.0 0.00 0.19 0.00 100 1015.2
20260905124034 70 19 3.0 7.0 0.00 0.19 0.00 100 1015.0
20260905123534 70 48 2.0 8.0 0.00 0.19 0.00 100 1014.9
20260905123052 70 46 2.0 8.0 0.00 0.19 0.00 100 1015.0
20260905122535 70 40 4.0 8.0 0.00 0.19 0.00 100 1014.9
20260905122033 70 43 2.0 7.0 0.00 0.19 0.00 100 1014.7
20260905121554 70 61 2.0 6.0 0.00 0.19 0.00 100 1014.6
20260905121035 70 50 3.0 9.0 0.00 0.19 0.00 100 1014.4
20260905120539 69 44 2.0 9.0 0.00 0.19 0.00 100 1014.4
20260905120056 69 51 1.0 9.0 0.00 0.19 0.00 100 1014.2